Nome, AK

12:20 AM AKST on February 24, 2017 (GMT -0900)
Nome

Weather History for PAOM - August, 2012

Change the Weather History Date:

Tuesday, August 21, 2012

  Actual Average Record
Temperature  
Mean Temperature 49 °F 50 °F  
Max Temperature 49 °F 56 °F 81 °F (1977)
Min Temperature 48 °F 44 °F 29 °F (1969)
Degree Days  
Heating Degree Days 16 15  
Month to date heating degree days 305 303  
Since 1 June heating degree days 1224 1219  
Since 1 July heating degree days 726 703  
Cooling Degree Days 0    
Month to date cooling degree days 0  
Year to date cooling degree days 0  
Since 1 June cooling degree days 0  
Moisture  
Dew Point 47 °F    
Average Humidity 0    
Maximum Humidity 0    
Minimum Humidity 0    
Precipitation  
Precipitation 0.96 in 0.11 in 1.16 in (1951)
Month to date precipitation 4.03 2.23  
Year to date precipitation 13.36 9.46  
Snow  
Snow 0.00 in 0.00 in 0.00 in (2016)
Month to date snowfall 0.0 0.0  
Since 1 June snowfall 0.0 0.3  
Since 1 July snowfall 0.0 0.0  
Snow Depth 0.00 in    
Sea Level Pressure  
Sea Level Pressure 29.74 in    
Wind  
Wind Speed 19 mph (South)    
Max Wind Speed 25 mph    
Max Gust Speed 32 mph    
Visibility 6 miles    
Events Rain    
T = Trace of Precipitation, MM = Missing Value Source: NWS Daily Summary

Daily Weather History Graph

Daily Weather History Graph

Search for Another Location

Airport or City:

Trip Planner

Search our weather history database for the weather conditions in past years. The results will help you decide how hot, cold, wet, or windy it might be!

Date:

Astronomy

Aug. 21, 2012 Rise Set
Actual Time 7:11 AM AKDT 10:55 PM AKDT
Civil Twilight 6:10 AM AKDT 11:55 PM AKDT
Nautical Twilight 4:28 AM AKDT 1:33 AM AKDT
Astronomical Twilight Sun does not rise Sun does not rise
Moon 2:14 PM AKDT (8/21) 10:39 PM AKDT (8/21)
Length of Visible Light 17h 44m
Length of Day
15h 44m
Waxing Crescent, 21% of the Moon is Illuminated
Aug 21
Waxing Crescent
Aug 24
First Quarter
Aug 31
Full
Sep 8
Last Quarter
Sep 15
New

Hourly Weather History & Observations

Time (AKDT) Temp. Dew Point Humidity Pressure Visibility Wind Dir Wind Speed Gust Speed Precip Events Conditions
12:53 AM 48.9 °F 48.0 °F 97% 29.79 in 4.0 mi South 17.3 mph - 0.06 in Rain Light Rain
1:28 AM 48.2 °F 48.2 °F 100% 29.79 in 3.0 mi South 17.3 mph - 0.03 in Rain Light Rain
1:38 AM 48.2 °F 48.2 °F 100% 29.79 in 2.0 mi South 16.1 mph - 0.03 in   Overcast
1:46 AM 48.2 °F 48.2 °F 100% 29.78 in 2.0 mi South 16.1 mph 21.9 mph 0.04 in   Overcast
1:53 AM 48.9 °F 48.0 °F 97% 29.79 in 2.0 mi South 15.0 mph - 0.04 in   Overcast
2:13 AM 48.2 °F 48.2 °F 100% 29.78 in 3.0 mi South 20.7 mph 26.5 mph 0.03 in Rain Rain
2:44 AM 48.2 °F 48.2 °F 100% 29.76 in 2.0 mi South 21.9 mph 27.6 mph 0.07 in   Overcast
2:53 AM 48.9 °F 48.0 °F 97% 29.77 in 2.0 mi South 21.9 mph 27.6 mph 0.08 in   Overcast
3:10 AM 48.2 °F 48.2 °F 100% 29.76 in 3.0 mi South 18.4 mph 27.6 mph 0.04 in Rain Light Rain
3:53 AM 48.9 °F 48.0 °F 97% 29.77 in 7.0 mi South 21.9 mph 27.6 mph 0.09 in Rain Light Rain
4:53 AM 48.9 °F 48.0 °F 97% 29.75 in 3.0 mi South 21.9 mph 32.2 mph 0.04 in   Overcast
5:02 AM 48.2 °F 48.2 °F 100% 29.75 in 2.5 mi South 23.0 mph 29.9 mph N/A   Overcast
5:19 AM 48.2 °F 48.2 °F 100% 29.76 in 4.0 mi South 23.0 mph 29.9 mph 0.01 in Rain Light Rain
5:53 AM 48.9 °F 48.0 °F 97% 29.75 in 3.0 mi South 21.9 mph 31.1 mph 0.01 in Rain Light Rain
6:53 AM 48.9 °F 48.0 °F 97% 29.75 in 4.0 mi SSW 19.6 mph 31.1 mph 0.01 in Rain Light Rain
7:23 AM 48.2 °F 48.2 °F 100% 29.75 in 2.5 mi South 20.7 mph 26.5 mph 0.02 in   Overcast
7:30 AM 48.2 °F 48.2 °F 100% 29.74 in 4.0 mi South 21.9 mph - 0.02 in   Overcast
7:53 AM 48.9 °F 48.0 °F 97% 29.75 in 7.0 mi South 20.7 mph 26.5 mph 0.04 in Rain Light Rain
8:53 AM 48.9 °F 48.0 °F 97% 29.74 in 5.0 mi South 20.7 mph 27.6 mph 0.08 in Rain Light Rain
9:53 AM 48.9 °F 48.0 °F 97% 29.74 in 10.0 mi South 20.7 mph 31.1 mph 0.02 in Rain Light Rain
10:53 AM 48.9 °F 46.9 °F 93% 29.75 in 10.0 mi SSW 21.9 mph - 0.02 in Rain Light Rain
11:24 AM 48.2 °F 48.2 °F 100% 29.75 in 8.0 mi South 20.7 mph 27.6 mph 0.01 in Rain Light Rain
11:53 AM 48.9 °F 46.9 °F 93% 29.75 in 7.0 mi South 19.6 mph 29.9 mph 0.01 in Rain Light Rain
12:53 PM 48.9 °F 46.9 °F 93% 29.75 in 7.0 mi South 21.9 mph 28.8 mph 0.02 in Rain Light Rain
1:53 PM 48.9 °F 46.9 °F 93% 29.75 in 10.0 mi South 21.9 mph 28.8 mph 0.02 in Rain Light Rain
2:53 PM 48.9 °F 46.9 °F 93% 29.74 in 10.0 mi South 20.7 mph 26.5 mph 0.00 in   Overcast
3:53 PM 48.9 °F 46.9 °F 93% 29.73 in 10.0 mi South 21.9 mph 27.6 mph 0.00 in   Overcast
4:20 PM 48.2 °F 46.4 °F 93% 29.73 in 4.0 mi South 23.0 mph 27.6 mph 0.00 in Rain Light Rain
4:53 PM 48.9 °F 46.9 °F 93% 29.73 in 3.0 mi South 17.3 mph 25.3 mph 0.01 in Rain Light Rain
5:41 PM 48.2 °F 48.2 °F 100% 29.71 in 1.8 mi South 17.3 mph - 0.02 in Rain Light Rain
5:50 PM 48.2 °F 46.4 °F 93% 29.72 in 3.0 mi South 19.6 mph - 0.03 in Rain Light Rain
5:53 PM 48.9 °F 46.9 °F 93% 29.72 in 6.0 mi South 18.4 mph - 0.03 in Rain Light Rain
6:00 PM 48.2 °F 46.4 °F 93% 29.71 in 7.0 mi South 18.4 mph - 0.00 in Rain Light Rain
6:53 PM 48.9 °F 46.9 °F 93% 29.72 in 5.0 mi South 18.4 mph - 0.03 in Rain Light Rain
6:56 PM 48.2 °F 46.4 °F 93% 29.71 in 5.0 mi South 18.4 mph - 0.00 in Rain Light Rain
6:58 PM 48.2 °F 46.4 °F 93% 29.71 in 6.0 mi South 20.7 mph 27.6 mph 0.00 in Rain Light Rain
7:53 PM 48.9 °F 46.9 °F 93% 29.71 in 6.0 mi South 17.3 mph 24.2 mph 0.04 in Rain Light Rain
8:53 PM 48.9 °F 46.9 °F 93% 29.71 in 5.0 mi South 16.1 mph - 0.08 in Rain Rain
9:53 PM 48.9 °F 46.9 °F 93% 29.69 in 6.0 mi South 17.3 mph 23.0 mph 0.06 in Rain Light Rain
10:53 PM 48.9 °F 46.9 °F 93% 29.69 in 8.0 mi South 17.3 mph - 0.07 in Rain Light Rain
11:00 PM 48.2 °F 46.4 °F 93% 29.69 in 9.0 mi South 18.4 mph - 0.00 in Rain Light Rain
11:38 PM 48.2 °F 46.4 °F 93% 29.69 in 6.0 mi South 18.4 mph 23.0 mph 0.04 in Rain Light Rain
11:53 PM 48.9 °F 46.9 °F 93% 29.69 in 8.0 mi South 16.1 mph 23.0 mph 0.06 in Rain Light Rain